Hourly Data Report for April 03, 2021

MIRAMICHI RCS
NEW BRUNSWICK
Current Station Operator: ECCC - MSC

47°00'34.000" N
65°27'54.000" W
33.00 m
8100989
71744
ACQ

Download Data

Hourly Data (April 2021)
Hourly Data Report for April 3, 2021
TIME
LST
Temp Definition
°C
Dew Point Definition
°C
Rel Hum Definition
%
Precip. Amount Definition
mm

Wind Dir Definition
10's deg

Wind Spd Definition
km/h
Visibility Definition
km
Stn Press Definition
kPa
Hmdx Definition


Wind Chill Definition


Weather Definition


00:00 -1.3 -7.5 63 LegendMM 2 6   101.50   -4 LegendNANA
01:00 -1.8 -7.6 64 LegendMM 36 4   101.47   -3 LegendNANA
02:00 -2.1 -7.8 65 LegendMM 32 4   101.49   -4 LegendNANA
03:00 -2.4 -8.1 65 LegendMM 32 4   101.54   -4 LegendNANA
04:00 -2.5 -8.6 63 LegendMM 31 6   101.56   -5 LegendNANA
05:00 -2.7 -8.8 63 LegendMM 34 3   101.60   -4 LegendNANA
06:00 -2.9 -8.2 67 LegendMM 35 3   101.55   -4 LegendNANA
07:00 -2.5 -8.1 65 LegendMM 27 10   101.69   -6 LegendNANA
08:00 -2.9 -11.5 51 LegendMM 28 10   101.75   -7 LegendNANA
09:00 -2.3 -11.8 48 LegendMM 28 8   101.76   -5 LegendNANA
10:00 -2.2 -11.6 49 LegendMM 29 13   101.71   -7 LegendNANA
11:00 -1.4 -10.7 49 LegendMM 29 9   101.66   -5 LegendNANA
12:00 -0.4 -10.7 46 LegendMM 27 8   101.62   -3 LegendNANA
13:00 0.7 -10.8 42 LegendMM 26 9   101.56     LegendNANA
14:00 1.6 -10.2 41 LegendMM 25 8   101.57     LegendNANA
15:00 2.6 -10.0 39 LegendMM 5 3   101.55     LegendNANA
16:00 2.3 -10.4 38 LegendMM 18 3   101.53     LegendNANA
17:00 2.9 -10.2 38 LegendMM 36 5   101.51     LegendNANA
18:00 1.3 -7.6 51 LegendMM 5 18   101.56     LegendNANA
19:00 -0.1 -7.8 56 LegendMM 6 12   101.61   -4 LegendNANA
20:00 -1.4 -7.1 65 LegendMM 6 8   101.69   -4 LegendNANA
21:00 -1.8 -7.4 65 LegendMM 3 3   101.71   -3 LegendNANA
22:00 -1.7 -8.7 59 LegendMM 36 6   101.69   -4 LegendNANA
23:00 -2.1 -9.0 59 LegendMM 34 6   101.63   -4 LegendNANA

Notes on Data Quality.

Legend

  • E = Estimated
  • M = Missing
  • NA = Not Available*
  • [empty] = Indicates an unobserved value
Date modified: